map of YMS home
Great Circle Mapper logo
YMS - Airport
Location
City:  Yurimaguas, Loreto, Perú
Name:Moisés Benzaquén Rengifo Airport
ICAO / IATA:SPMS / YMS

Details
Type:Airport (Aerodrome, Airfield)
Use:Public/Civil
Latitude:5°53'37"S (-5.893610)
Longitude:76°07'05"W (-76.118055)
Elevation:587 ft (179 m)
Variation:3.64°W (WMM2015 magnetic declination)
-0.16° annual change
Runways:1
Longest:5906 × 98 ft (1800 × 30 m), paved

Time
Time Zone:UTC-5
Local Time:

Weather
METAR:SPMS 252300Z 03004KT 9999 VCSH SCT020 BKN080 30/25 Q1012 RMK BIRD HAZARD RWY 09/27 PP000
TAF:SPMS 251700Z 2518/2618 35003KT 9999 SCT015 SCT100 TX33/2520Z TN23/2610Z
TEMPO 2522/2601 VCSH SCT015 FEW025TCU PROB30
TEMPO 2601/2605 VRB05KT 6000 -DZRA BKN012 BKN080
TEMPO 2610/2613 5000 BR BKN008 BKN070

Related Locations
Nearby:
Farthest:RDN: 12388 mi / 19937 km
Redang, Pulau Redang, MY

Find:

   beyond  
but within

Other Information
Maps:
NOTAMs:
Links:
Sources:

  
flag of Perú
flag of Loreto
  

Sectional Chart

Flight Planning
at skyvector.com

Satellite Image

Google Maps Satellite View

 

Copyright © 2004-2015 Karl L. Swartz. All rights reserved.
The Great Circle Mapper name and logo are trademarks of the Great Circle Mapper.
All other trademarks mentioned herein belong to their respective owners.
Please see credits for attibutions and further copyright information.

  Follow gcmap on Facebook Follow gcmap on Twitter Follow gcmap on Google+

hCard Microformat

Geo Microformat